Scottsbluff, NE

6:03 AM MDT on June 18, 2018 (GMT -0600)
Heilig

Weather History for KBFF - December, 2017

Change the Weather History Date:

Thursday, December 7, 2017

  Actual Average Record
Temperature  
Mean Temperature 27 °F 27 °F  
Max Temperature 42 °F 40 °F 68 °F (1939)
Min Temperature 12 °F 13 °F -18 °F (1909)
Degree Days  
Heating Degree Days 38 38  
Month to date heating degree days 261  
Since 1 July heating degree days 1826  
Cooling Degree Days 0 0  
Month to date cooling degree days 0  
Year to date cooling degree days 724  
Moisture  
Dew Point 14 °F    
Average Humidity 52    
Maximum Humidity 77    
Minimum Humidity 24    
Precipitation  
Precipitation 0.00 in 0.01 in 0.34 in (2007)
Month to date precipitation 0.11  
Year to date precipitation 15.39  
Snow  
Snow 0.00 in 0.20 in 5.00 in (1936)
Month to date snowfall 1.5  
Since 1 July snowfall 10.4  
Snow Depth -    
Sea Level Pressure  
Sea Level Pressure 30.38 in    
Wind  
Wind Speed 11 mph (WNW)    
Max Wind Speed 24 mph    
Max Gust Speed 32 mph    
Visibility 10 miles    
Events      
T = Trace of Precipitation, MM = Missing Value Source: NWS Daily Summary

Daily Weather History Graph

Daily Weather History Graph

Search for Another Location

Airport or City:

Astronomy

Dec. 07, 2017 Rise Set
Actual Time 7:08 AM MST 4:23 PM MST
Civil Twilight 6:37 AM MST 4:54 PM MST
Nautical Twilight 6:02 AM MST 5:29 PM MST
Astronomical Twilight 5:28 AM MST 6:03 PM MST
Moon 9:14 PM MST (12/7) 10:48 AM MST (12/7)
Length of Visible Light 10h 17m
Length of Day
9h 14m
Waning Gibbous, 77% of the Moon is Illuminated
Dec 7
Waning Gibbous
Dec 10
Last Quarter
Dec 17
New
Dec 26
First Quarter
Jan 1
Full

Hourly Weather History & Observations

Time (MST) Temp. Windchill Dew Point Humidity Pressure Visibility Wind Dir Wind Speed Gust Speed Precip Events Conditions
12:45 AM 23.0 °F 14.7 °F 12.9 °F 65% 30.42 in 10.0 mi West 6.9 mph - N/A   Overcast
12:53 AM 23.0 °F 15.8 °F 12.9 °F 65% 30.52 in 10.0 mi West 5.8 mph - N/A   Overcast
1:03 AM 23.0 °F 14.7 °F 12.9 °F 65% 30.42 in 10.0 mi West 6.9 mph - N/A   Overcast
1:13 AM 23.0 °F 15.8 °F 12.9 °F 65% 30.42 in 10.0 mi WNW 5.8 mph - N/A   Overcast
1:40 AM 23.0 °F 14.7 °F 14.0 °F 68% 30.41 in 10.0 mi WNW 6.9 mph - N/A   Overcast
1:53 AM 23.0 °F 15.8 °F 14.0 °F 68% 30.51 in 10.0 mi WNW 5.8 mph - N/A   Overcast
2:53 AM 23.0 °F 17.0 °F 15.1 °F 72% 30.51 in 10.0 mi WNW 4.6 mph - N/A   Overcast
3:53 AM 25.0 °F 13.6 °F 15.1 °F 66% 30.48 in 10.0 mi NW 12.7 mph - N/A   Overcast
4:53 AM 21.9 °F 11.7 °F 14.0 °F 72% 30.49 in 10.0 mi WNW 9.2 mph - N/A   Mostly Cloudy
5:53 AM 15.1 °F 6.4 °F 9.0 °F 77% 30.53 in 10.0 mi NW 5.8 mph - N/A   Clear
6:53 AM 12.9 °F 1.6 °F 7.0 °F 77% 30.54 in 10.0 mi NW 8.1 mph - N/A   Clear
7:53 AM 15.1 °F 6.4 °F 8.1 °F 74% 30.54 in 10.0 mi WNW 5.8 mph - N/A   Clear
8:53 AM 21.9 °F 10.4 °F 10.9 °F 63% 30.50 in 10.0 mi WNW 11.5 mph - N/A   Clear
9:53 AM 28.9 °F 17.7 °F 10.0 °F 45% 30.47 in 10.0 mi WNW 15.0 mph - N/A   Scattered Clouds
10:53 AM 34.0 °F 23.0 °F 10.9 °F 38% 30.41 in 10.0 mi WNW 18.4 mph 25.3 mph N/A   Overcast
11:53 AM 36.0 °F 25.6 °F 12.0 °F 37% 30.37 in 10.0 mi WNW 18.4 mph - N/A   Overcast
12:53 PM 39.0 °F 29.0 °F 12.9 °F 34% 30.33 in 10.0 mi WNW 20.7 mph 28.8 mph N/A   Overcast
1:53 PM 41.0 °F 30.9 °F 15.1 °F 35% 30.30 in 10.0 mi WNW 24.2 mph 32.2 mph N/A   Mostly Cloudy
2:53 PM 41.0 °F 30.9 °F 17.1 °F 38% 30.28 in 10.0 mi NW 24.2 mph 32.2 mph N/A   Clear
3:53 PM 39.0 °F 29.9 °F 17.1 °F 41% 30.27 in 10.0 mi WNW 17.3 mph 27.6 mph N/A   Scattered Clouds
4:53 PM 39.0 °F 29.6 °F 18.0 °F 43% 30.27 in 10.0 mi WNW 18.4 mph - N/A   Mostly Cloudy
5:53 PM 39.0 °F 31.4 °F 19.9 °F 46% 30.30 in 10.0 mi WNW 12.7 mph - N/A   Overcast
6:53 PM 39.0 °F 29.9 °F 19.0 °F 45% 30.29 in 10.0 mi WNW 17.3 mph 23.0 mph N/A   Overcast
7:53 PM 37.9 °F 30.5 °F 19.0 °F 47% 30.29 in 10.0 mi West 11.5 mph - N/A   Overcast
8:53 PM 39.0 °F 30.3 °F 19.0 °F 45% 30.26 in 10.0 mi West 16.1 mph - N/A   Overcast
9:53 PM 39.0 °F 30.3 °F 18.0 °F 43% 30.23 in 10.0 mi West 16.1 mph - N/A   Overcast
10:53 PM 39.9 °F 31.4 °F 18.0 °F 41% 30.20 in 10.0 mi WNW 16.1 mph - N/A   Overcast
11:53 PM 42.1 °F 32.8 °F 17.1 °F 37% 30.16 in 10.0 mi WNW 21.9 mph 31.1 mph N/A   Mostly Cloudy